Regional Weather Roundup
Issued by NWS

Home | Current Version | Previous Version | Text Only | Print | Product List | Glossary On
Versions: 1 2 3 4 5 6 7 8 9 10 11 12 13 14 15 16 17 18 19 20 21 22 23 24 25 26 27 28 29 30 31 32 33 34 35 36 37 38 39 40 41 42 43 44 45 46 47 48 49 50
000
ASUS42 KTBW 050417
RWRFL
FLORIDA REGIONAL WEATHER ROUNDUP
NATIONAL WEATHER SERVICE TAMPA BAY RUSKIN FL
1200 AM EDT TUE MAY 05 2015

NOTE: "FAIR" INDICATES FEW OR NO CLOUDS BELOW 12,000 FEET WITH NO
SIGNIFICANT WEATHER AND/OR OBSTRUCTIONS TO VISIBILITY.


FLZ001>010-012>015-112-114-115-050500-
PANHANDLE FLORIDA

CITY           SKY/WX    TMP DP  RH WIND       PRES   REMARKS
PENSACOLA      CLEAR     66  61  84 E3        30.20F
PENSACOLA NAS  CLEAR     64  61  90 CALM      30.20F
MILTON NAS     CLEAR     59  57  93 CALM      30.22
CRESTVIEW      CLEAR     58  55  90 CALM      30.23F
VALPARAISO     PTCLDY    65  59  81 NW2       30.21S
MARY ESTHER    CLEAR     63  59  87 N2        30.20S
PANAMA CITY    FAIR      63  61  93 CALM      30.21S
TYNDALL AFB    PTCLDY    67  62  84 NE3       30.21F
APALACHICOLA   PTCLDY    68  62  81 NE5       30.21F

STATION/POSITION SKY/WX   TEMP    WIND        PRES    WAVE   SWELL
                          AIR SEA DIR/SP/G            HT/PER HT/PER
                          (F)     (DEG/KT/KT) (MB)    (FT/S) (FT/S)
30.1N   87.6W              74 75  130/ 10/ 12 1021.9F   5/ 7   5/ 7
29.2N   88.2W              74 75  110/ 17/ 19 1022.2R   6/ 8   3/ 8
28.8N   86.0W              74 75   80/ 12/ 14 1022.4F   4/ 8   3/ 8
PANAMA CITY BEAC           69 76  360/  5/  6 1022.9R
CAPE SAN BLAS    NOT AVBL
TOWER C                    74      60/ 10/ 11 1022.8F
28.5N   84.5W              76 75   60/ 14/ 17 1022.1S   3/ 6   2/ 7

$$
FLZ011-016>038-118-127-128-134-139-239-050500-
NORTH FLORIDA

CITY           SKY/WX    TMP DP  RH WIND       PRES   REMARKS
MARIANNA       CLEAR     66  59  78 CALM      30.23R
TALLAHASSEE    CLEAR     72  56  57 E9        30.24R
PERRY          CLEAR     67  56  66 NE5       30.26R
CROSS CITY       N/A     64  56  75 NE3       30.24S
LAKE CITY      FAIR      63  59  88 NE3       30.26F
GAINESVILLE    CLEAR     63  57  81 NE7       30.25S
MAYPORT NAS    MOCLDY    72  62  71 E12       30.26S
JACKSONVILLE   MOCLDY    66  62  87 CALM      30.26F
JAX NAS        MOCLDY    75  61  61 E7        30.27S
JAX CRAIG      CLOUDY    72  59  63 E5        30.26S
JAX CECIL      MOCLDY    64  63  94 CALM      30.27S
FERNANDINA BEA CLOUDY    77  63  61 E6        30.26S
ST AUGUSTINE   PTCLDY    72  62  71 E12       30.26S

STATION/POSITION SKY/WX   TEMP    WIND        PRES    WAVE   SWELL
                          AIR SEA DIR/SP/G            HT/PER HT/PER
                          (F)     (DEG/KT/KT) (MB)    (FT/S) (FT/S)
SHELL POINT                76      90/  7/ 12   N/A
KEATON BEACH               67      70/  5/  6 1024.1R
CEDAR KEY                  69      50/  7/  9 1023.9S
FERNANDINA                 72 73  100/  3/  5 1024.6R
30.7N   81.3W                 72                N/A     4/ 5   2/13
MAYPORT                    72 73  120/  5/ 10 1024.9R
31.4N   80.9W              71 70   90/  8/  8 1025.8F   3/ 6   3/ 6
ST AUGUSTINE               72 72   90/ 11/ 13 1025.2R

$$
FLZ040-043>046-052-053-057-058-063-144-050500-
INTERIOR CENTRAL FLORIDA

CITY           SKY/WX    TMP DP  RH WIND       PRES   REMARKS
OCALA          CLEAR     64  54  68 CALM      30.24S
THE VILLAGES     N/A     66  59  77 N6        30.13F
LEESBURG       MOCLDY    69  59  70 NE6       30.23F
SANFORD        CLOUDY    70  60  70 NE7       30.21F
ORLANDO EXEC   CLOUDY    71  61  70 NE5       30.21S
ORLANDO INTL   CLOUDY    72  63  73 NE9       30.21S
WINTER HAVEN   CLOUDY    70  63  78 E16       30.22S
LAKELAND       CLOUDY    70  61  73 E6        30.21S
BARTOW         MOCLDY    68  63  83 NE13G23   30.22R HAZE
OKEECHOBEE     MOCLDY    64  63  94 N5        30.18S

$$
FLZ041-047-054-059-064-141-147-050500-
EAST CENTRAL FLORIDA

CITY           SKY/WX    TMP DP  RH WIND       PRES   REMARKS
DAYTONA BEACH  CLOUDY    73  61  65 E13       30.23S
DELAND           N/A     66  59  77 N3        30.24S
JFK SPACE CTR  CLOUDY    70  64  83 E13G18    30.20S
CAPE CANAVERAL CLOUDY    72  64  78 E15G22    30.20S
PATRICK AFB    CLOUDY    72  66  83 NE17      30.19R
MELBOURNE      CLOUDY    72  66  81 NE16      30.19S
VERO BEACH     MOCLDY    74  63  68 E8        30.17F
FT PIERCE      MOCLDY    73  64  73 E9        30.16F
STUART         MOCLDY    73  63  68 E13       30.16F

STATION/POSITION SKY/WX   TEMP    WIND        PRES    WAVE   SWELL
                          AIR SEA DIR/SP/G            HT/PER HT/PER
                          (F)     (DEG/KT/KT) (MB)    (FT/S) (FT/S)
28.5N   80.2W              71 76   60/ 19/ 25 1022.5F
28.9N   78.5W              74 78   90/ 19/ 23 1023.2F
TRIDENT PIER               71 77   50/ 16/ 21 1023.1R
28.4N   80.5W                 76                N/A     5/ 6   2/13
27.5N   80.2W                 78                N/A     6/12   3/12

$$
FLZ050-056-061-142-242-148-248-149-249-151-251-155-255-
160-260-050500-
WEST CENTRAL FLORIDA

CITY           SKY/WX    TMP DP  RH WIND       PRES   REMARKS
CRYSTAL RIVER  FAIR      64  55  72 E3        30.22F
INVERNESS      FAIR     N/A N/A N/A N3        30.23F
BROOKSVILLE    MOCLDY    66  57  72 NE7       30.22F
CLEARWATER     PTCLDY    73  60  63 E8        30.19S
TAMPA INTL     MOCLDY    73  56  54 NE3       30.20F
TAMPA EXEC     CLOUDY    70  59  68 CALM      30.20F
PLANT CITY     CLOUDY    72  63  73 NE6       30.22S
PETER O KNIGHT CLOUDY    73  61  64 NE9       30.19F
ST PETERSBURG  PTCLDY    75  62  64 E15       30.18F
SARASOTA       PTCLDY    69  59  70 E7        30.17S
VENICE         FAIR      70  61  73 NE9       30.18S

STATION/POSITION SKY/WX   TEMP    WIND        PRES    WAVE   SWELL
                          AIR SEA DIR/SP/G            HT/PER HT/PER
                          (F)     (DEG/KT/KT) (MB)    (FT/S) (FT/S)
CEDAR KEY                  69      50/  7/  9 1023.9S
28.5N   84.5W              76 75   60/ 14/ 17 1022.1S   3/ 6   2/ 7
27.3N   84.2W                 77                N/A     4/ 5
CLEARWATER BEACH NOT AVBL
MIDDLE TAMPA BAY           73      90/ 14/ 16 1022.2R
VENICE                     71 78   50/  8/ 10 1021.4S

$$
FLZ066-069-070-075>078-162-262-165-265-050500-
SOUTHWEST FLORIDA AND KEYS

CITY           SKY/WX    TMP DP  RH WIND       PRES   REMARKS
PUNTA GORDA    CLOUDY    68  62  81 NE9       30.19R
FT MYERS       CLOUDY    71  62  73 NE8       30.15S
SOUTHWEST INTL CLOUDY    71  62  73 NE8       30.15S
NAPLES         CLOUDY    72  63  73 NE8       30.14R
MARCO ISLAND   CLEAR     72  61  68 NE7       30.14R
IMMOKALEE      CLEAR    N/A N/A N/A CALM      30.15F
MARATHON       MOCLDY    77  68  73 E8        30.08S
KEY WEST NAS   CLOUDY    74  66  76 NE8       30.09S
KEY WEST INTL  CLOUDY    75  67  76 NE8       30.10R

STATION/POSITION SKY/WX   TEMP    WIND        PRES    WAVE   SWELL
                          AIR SEA DIR/SP/G            HT/PER HT/PER
                          (F)     (DEG/KT/KT) (MB)    (FT/S) (FT/S)
VENICE                     71 78   50/  8/ 10 1021.4S
NAPLES                     73 77   30/  5/  9 1020.3R
26.0N   85.6W              76 81   60/ 16/ 19 1019.6F   6/ 7   5/ 7
DRY TORTUGAS               78      90/ 20/ 22 1019.2R
NW FL BAY                  75      60/ 12/ 14 1019.2
SAND KEY                   76      50/ 17/ 19 1019.0R
SOMBRERO KEY               78      70/ 18/ 20 1018.9R
LONG KEY                   76 75   70/ 12/ 14 1019.3F
MOLASSES REEF              77 79   70/ 19/ 20 1018.6R

$$
FLZ067-068-071>074-168-172>174-050500-
SOUTHEAST FLORIDA

CITY           SKY/WX    TMP DP  RH WIND       PRES   REMARKS
W PALM BEACH   MOCLDY    76  66  71 E15       30.14F
FT LAUDER-EXEC CLOUDY    75  69  81 NE10      30.11F
FT LAUDERDALE  MOCLDY    75  68  78 NE13      30.11F
POMPANO BEACH  MOCLDY    75  67  76 NE15      30.12S
PEMBROKE PINES MOCLDY    75  67  76 NE12      30.12F
OPA LOCKA      MOCLDY    75  67  76 E8        30.11S
MIAMI          MOCLDY    77  63  61 E8        30.11S
WEST KENDALL   MOCLDY    75  64  68 E9        30.10F
HOMESTEAD      NOT AVBL

STATION/POSITION SKY/WX   TEMP    WIND        PRES    WAVE   SWELL
                          AIR SEA DIR/SP/G            HT/PER HT/PER
                          (F)     (DEG/KT/KT) (MB)    (FT/S) (FT/S)
PORT EVERGLADES            76      60/ 17/ 22 1019.5F
VIRGINIA KEY               77 77   80/ 12/ 18 1019.0F
LAKE WORTH                 76 78   70/ 18/ 20 1020.1R
SETTLEMENT POINT           75      90/ 16/ 19 1021.3R

$$



USA.gov is the U.S. government's official web portal to all federal, state and local government web resources and services.